Погода в Шиели

Погода в Шиели : погода сейчас, прогноз погоды и архив. Всё, что Вы хотите узнать о погоде в Шиели!

Хотите узнать прогноз погоды в Шиели? Тогда Вам сюда: Погода в Шиели

Поиск расширенной информации на нашем сайте:

Другие новости

Новости СМИ2

Главная страница сайта

Новости сайта

02.10.2013

Напоминаем, что на нашем новом сайте вы можете получить высокодетализированные прогнозы погоды по пунктам России, СНГ и мира (включающие важные для авиации метеовеличины, такие как направление и скорость ветра, видимость, явления погоды, количество и форма облачности, нижняя и верхняя граница облачности), а также ознакомиться с разнообразными материалами по авиационной метеорологии и подборкой полезных ссылок на эту тему.

Сайт Метеоцентр.Азия посвящён разработке технологий оптимизации авиаметеорологического обслуживания, включая проектирование и перспективное создание нескольких автоматизированных авиаметеорологических систем:
- система выпуска высокодетальных прогностических карт явлений погоды для нижнего воздушного пространства по России и ближнему зарубежью;
- система верификации прогнозов TAF (выпускаемых синоптиками официальных АМСГ РФ и ближнего зарубежья) и AUTOTAF (выпускаемых сайтом Метеоцентр.Азия) - выявление ошибок, онлайн-сопоставление с фактической погодой METAR, автоматическое внесение коррективов в прогнозы при резком отклонении фактической погоды от прогноза, подсчёт оправдываемости прогнозов по элементам и в целом;
- система обработки, анализа и отображения авиаметеорологической информации для применения провайдерами метеорологической информации.

Рекомендуем: Ремонт электротранспорта обслуживание ж и электротранспорта.

Погода в Шиели - сегодня

Время (UTC), дата Ветер
(°,м/с) 
Видим.   Явления Облачность Т
(°С)
Тd
(°С)
f(%) Тe
(°С)
Pmin
(гПа)
dP
(гПа)
Po
(мм)
O2
(г/м3)
Тmin Tmax R s Состояние
почвы
09 23.04.17 260 (З) 20000 м    3/3 600 м 
[Cu hum]
+26.2 +4.5 25 +26  1018.7  -1.1  751  275           
12 23.04.17 260 (З) 20000 м    1/1 600 м 
[Cu hum]
+27.1 +3.4 22 +27  1017.5  -1  750  274           
15 23.04.17 020 (С) н/о    ясно 
+22.1 +7.7 39 +22  1018.8  0.9  751  279    +28.3       
18 23.04.17 040 (СВ) н/о    ясно 
+16.4 +4.5 45 +17  1020.3  1.1  752  285    +28.3       
21 23.04.17 070 (В) н/о    ясно 
+13.4 +4.3 54 +15  1019.3  -1.1  751  288           
00 24.04.17 090 (В) н/о    ясно 
+12.5 +5 60 +13  1018.5  -0.9  750  288           
03 24.04.17 100 (В) 20000 м    ясно 
+16.6 +6.4 51 +17  1018.8  0.5  750  284           
06 24.04.17 180 (Ю) 20000 м    3/0 верхняя 
[Ci fib]
+25 +7.7 33 +25  1017.5  -0.7  750  276  +12.1         
09 24.04.17 160 (Ю) 20000 м    1/0 верхняя 
[Ci fib]
+27.4 +5.9 25 +27  1015.4  -1.9  749  273           
12 24.04.17 170 (Ю) 20000 м    ясно 
+27.8 +5.5 24 +28  1013.7  -1.7  747  272           
15 24.04.17 120 (ЮВ) н/о    ясно 
+24.6 +7.6 34 +25  1013.2  -0.7  747  275    +28.8       
18 24.04.17 110 (В) н/о    ясно 
+17.6 +4.3 41 +19  1013.6  747  282    +28.8       
21 24.04.17 090 (В) н/о    ясно 
+14.9 +4.1 48 +16  1013  -0.8  746  284           
00 25.04.17 180 (Ю) н/о    ясно 
+13 +4.3 55 +14  1012.6  -0.5  746  286           
03 25.04.17 330 (СЗ) 20000 м    ясно 
+19.4 +8.5 49 +21  1012.3  0.2  746  279           
06 25.04.17 010 (С) 20000 м    ясно 
+27.8 +4.1 22 +28  1011.5  -0.4  746  272  +12.6         
09 25.04.17 320 (СЗ) 20000 м    3/0 верхняя 
[Cs]
+31.7 +3.6 17 +32  1010.2  -1  745  268           
12 25.04.17 340 (С) 20000 м    8/0 верхняя 
[Ci sp]
+32.1 +3.6 17 +32  1009.8  -0.4  745  268           
15 25.04.17 тихо ()   н/о    8/0 верхняя 
[Cs]
+26.3 +9.7 35 +27  1010.7  0.5  745  272    +33.2       
18 25.04.17 тихо ()   н/о    6/0 верхняя 
[Cs]
+21.1 +7.8 42 +21  1011.9  746  278    +33.2       
21 25.04.17 тихо ()   н/о    ясно 
+19.6 +7.3 45 +20  1011.6  -0.4  745  279           
00 26.04.17 тихо ()   н/о    4/0 верхняя 
[Cs]
+15.2 +6.5 56 +15  1012.3  0.4  746  284           
03 26.04.17 360 (С) 20000 м    6/0 верхняя 
[Cs]
+19.5 +6.8 44 +21  1013.1  1.1  746  280           
06 26.04.17 340 (С) 20000 м    3/0 верхняя 
[Ci sp]
+28.4 +3.6 20 +28  1013.6  0.9  747  272  +13.9         
09 26.04.17 340 (С) 20000 м    8/0 верхняя 
[Cs]
+30.1 +2.9 18 +30  1013.6  0.2  747  271           
Время (UTC), дата Ветер
(°,м/с) 
Видим.   Явления Облачность Т
(°С)
Тd
(°С)
f(%) Тe
(°С)
Pmin
(гПа)
dP
(гПа)
Po
(мм)
O2
(г/м3)
Тmin Tmax R s Состояние
почвы

Для получения пояснительной информации подведите курсор к названию столбца.

ПОГОДА в Шиели - архив

Всё, что Вы хотите узнать о погоде в Шиели - удобно и подробно!

Выберите нужную дату (начиная с 1 января 2015* года) и нажмите кнопку "Найти".
Будут отображены архивные сводки погоды по пункту Шиели, начиная с указанной даты.


Отображать данные в формате CSV (для использования в таблицах Excel)


Внимание! Наш архив погоды предназначен исключительно для личного некоммерческого использования в познавательных целях. Если Вам необходимы официальные справки о состоянии погоды (для производственных, юридических, коммерческих и т.п. целей), обращайтесь в органы Росгидромета.

*Примечание: данная дата относится к архиву по метеостанциям СССР (Россия, СНГ, Балтия).
Архив по метеостанциям Зарубежной Европы и Азии (кроме Китая) хранится 10 дней, по другим регионам земного шара (Китай, Африка, Америка, Австралия, Океания) - 1 день.

Шиели - район местоположения метеостанции


Название, широта, долгота, высота метеостанции:
Шиели (Чиили) 44.2°ш. 66.8°д. 153 м над ур. моря [Казахстан]

Дополнительная информация

В oтличие oт бoльшинства пoгoдных сайтoв мы публикуем пoдрoбную метеoинфoрмацию в детальнoм прoфессиoнальнoм фoрмате.

Характеристики температуры и влажнoсти вoздуха измеряются на высoте 2 м в тени вдали oт зданий и деревьев.
Скoрoсть ветра измеряется на высoте 10 м (на урoвне рoста челoвека скoрoсть ветра ниже в 1.5-2 раза). Если метеoстанция нахoдится в гoрoде или в лесу, тo скoрoсть ветра занижена на 2-4 м/с пo сравнению с oткрытым местoм. Скoрoсть ветра над акватoриями крупных рек и oзёр, а также на вершинах хoлмoв на 2-5 м/с выше, чем в oбычных услoвиях.
Атмoсфернoе давление в разных тoчках местнoсти мoжет значительнo oтличаться oт давления на метеoстанции, в зависимoсти oт услoвий рельефа (при пoдъёме на 10 м давление пoнижается примернo на 1 мм рт.ст.).